Weather in Pljussa

Russia / Pskov Oblast     58°25′34″N   29°21′45″E
temp.,
°C
wind,
m/s
gust,
m/s
humid.,
%
clouds,
%
prec.,
mm/h
press.,
hPa
HPBL,
m
12 may, wed
wed1200:00+11sse27880 0.0 1022118
03:00+10sse39840 0.0 1023167
06:00+10sse28860 0.0 1023169
09:00+18sse35650 0.0 1022414
12:00+22se57510 0.0 10221183
15:00+23sse58443 0.0 10212025
18:00+23sse46500 0.0 10201907
21:00+16sse11750 0.0 101911
13 may, thu
thu1300:00+14ne2581100 0.0 101783
03:00+13e3986100 0.1 1016276
06:00+13ese4119353 0.0 1015598
09:00+15se596715 0.1 10151153
12:00+17se58477 0.0 10151499
15:00+19ese584162 0.0 10132384
18:00+16ese2759100 0.0 1012688
21:00+14se2772100 0.0 1011220
14 may, fri
fri1400:00+11s2486100 0.0 1010210
03:00+10se2598100 2.9 1010239
06:00+10sse26967 0.2 1009260
09:00+13sse36761 0.2 1010604
12:00+14sse5764100 0.0 1010983
15:00+17sse5860100 0.1 10091489
18:00+16sse476888 0.1 10081061
21:00+13sse398898 0.4 1008386
15 may, sat
sat1500:00+12se129039 0.0 100735
03:00+10ese11955 0.0 100710
06:00+10e11935 0.0 100622
09:00+16se12725 0.0 1006480
12:00+20s226327 0.6 10061151
15:00+20ssw126423 2.7 10051188
18:00+19w127793 3.6 1004139
21:00+14nw2291100 4.7 100418
16 may, sun
sun1600:00+12nnw2599100 0.8 1005159
03:00+12nnw249989 1.4 1005114
06:00+11nnw2699100 0.2 1006225
09:00+14nnw3491100 0.8 1007491
12:00+15nw3479100 0.1 1009768
15:00+15nw4578100 0.2 1010757
18:00+13nw3582100 0.0 1011426
21:00+12nw239062 0.0 1013137